This is the latest recevied weather packets stored in our database for station/object KB1JLI. If no packets are shown the sender has not sent any weather packets the latest 10 day(s).
| Time | Temp. | Humidity | Pressure | Rain* | Wind** | Luminosity | Snow |
|---|---|---|---|---|---|---|---|
| 1777898932 | 14.44° C | 43% | 1010.1 hPa | 0 mm | - | 358 W/m² | - |
| 1777898629 | 14.44° C | 43% | 1010.4 hPa | 0 mm | - | 347 W/m² | - |
| 1777898326 | 13.89° C | 46% | 1010.2 hPa | 0 mm | - | 333 W/m² | - |
| 1777898018 | 13.89° C | 46% | 1010.3 hPa | 0 mm | - | 321 W/m² | - |
| 1777897714 | 13.89° C | 46% | 1010.4 hPa | 0 mm | - | 304 W/m² | - |
| 1777897411 | 13.33° C | 46% | 1010.3 hPa | 0 mm | - | 290 W/m² | - |
| 1777897107 | 13.33° C | 47% | 1010.4 hPa | 0 mm | - | 279 W/m² | - |
| 1777896804 | 13.33° C | 47% | 1010.5 hPa | 0 mm | - | 261 W/m² | - |
| 1777896501 | 12.78° C | 48% | 1010.4 hPa | 0 mm | - | 247 W/m² | - |
| 1777896198 | 12.78° C | 48% | 1010.4 hPa | 0 mm | - | 215 W/m² | - |
| 1777895896 | 12.22° C | 48% | 1010.5 hPa | 0 mm | - | 235 W/m² | - |
| 1777895593 | 11.67° C | 49% | 1010.3 hPa | 0 mm | - | 154 W/m² | - |
| 1777895290 | 11.11° C | 50% | 1010.3 hPa | 0 mm | - | 100 W/m² | - |
| 1777894989 | 11.11° C | 52% | 1010.4 hPa | 0 mm | - | 190 W/m² | - |
| 1777894686 | 10.56° C | 52% | 1010.5 hPa | 0 mm | - | 56 W/m² | - |
| 1777894382 | 10.56° C | 53% | 1010.5 hPa | 0 mm | - | 51 W/m² | - |
| 1777894080 | 10° C | 54% | 1010.5 hPa | 0 mm | - | 47 W/m² | - |
| 1777893776 | 9.44° C | 56% | 1010.5 hPa | 0 mm | - | 46 W/m² | - |
| 1777893473 | 8.89° C | 58% | 1010.5 hPa | 0 mm | - | 57 W/m² | - |
| 1777893169 | 8.89° C | 61% | 1010.7 hPa | 0 mm | - | 45 W/m² | - |
| 1777892866 | 8.89° C | 59% | 1010.5 hPa | 0 mm | - | 44 W/m² | - |
| 1777892562 | 8.89° C | 58% | 1010.4 hPa | 0 mm | - | 39 W/m² | - |
| 1777892258 | 9.44° C | 57% | 1010.5 hPa | 0 mm | - | 38 W/m² | - |
| 1777891954 | 9.44° C | 57% | 1010.5 hPa | 0 mm | - | 38 W/m² | - |
| 1777891653 | 9.44° C | 56% | 1010.6 hPa | 0 mm | - | 32 W/m² | - |
* Rain latest hour (hover to see other rain measurements)
** Current wind speed in m/s (hover to see current wind gust speed)